Orbital Elements at Epoch 2455043.5 (2009-Jul-31.0) TDB
Reference: JPL 16 (heliocentric ecliptic J2000)
Element | Value | Uncertainty (1-sigma) | Units |
e | .4661521982198971 | 2.4417e-06 | |
a | 4.007581031325256 | 1.6633e-07 | au |
q | 2.139438324028626 | 9.7109e-06 | au |
i | 21.08784734057847 | 9.7803e-05 | deg |
node | 318.5272544379893 | 0.00011987 | deg |
peri | 316.399228346431 | 0.00057091 | deg |
M | 336.8381229479633 | 0.00014344 | deg |
tp | 2455232.035504132373 (2010-Feb-04.53550413) | 0.0011606 | TDB |
period | 2930.366193342948 8.02 | 0.00018244 4.995e-07 | d yr |
n | .1228515401310011 | 7.6483e-09 | deg/d |
Q | 5.875723738621886 | 2.4387e-07 | au |
|
| | Orbit Determination Parameters
Additional Information
|